Wind_Speed
11 10 9 7 5 3 1 1 2 3 4 6 8 9 9 9 9 9 10 10 10 9 8 7 7 6 7 7 6 6 6 5 5 5 4 3 2 2 2 1 1 1 0 0
13 11 9 6 4 3 3 2 2 3 5 7 7 7 6 8 9 9 9 9 8 8 8 7 6 6 6 6 6 5 5 5 5 4 4 4 3 2 2 2 1 1 0 1
13 12 12 10 8 5 4 3 4 5 5 7 9 8 7 7 8 8 8 9 9 8 7 7 7 7 7 7 6 6 6 5 4 4 3 3 3 2 2 1 0 1 2 2
13 12 12 12 10 6 6 5 7 7 7 8 9 9 8 8 8 7 7 8 8 8 8 7 7 7 7 6 6 6 6 5 4 3 3 3 3 2 1 0 1 2 3 4
13 12 12 11 9 7 7 6 8 8 9 9 8 10 9 9 9 8 7 8 8 9 9 8 8 7 7 7 6 6 5 4 4 4 3 3 3 2 2 2 3 3 4 5
14 13 12 11 9 8 8 9 10 10 10 9 8 10 9 10 10 9 9 9 9 9 9 8 8 8 7 8 8 7 6 5 5 4 4 4 4 4 4 4 5 6 6 6
14 14 13 11 11 10 10 11 11 12 11 9 9 11 11 10 10 9 9 9 8 8 8 9 10 8 8 9 9 8 7 7 7 6 6 6 6 6 6 7 7 7 7 7
15 14 13 13 12 12 11 11 12 13 12 10 10 12 12 11 11 9 9 10 10 9 9 10 10 9 9 9 9 9 8 8 8 9 9 8 8 8 8 9 9 9 9 9
16 16 15 14 13 13 13 12 13 14 14 14 12 12 11 11 11 9 10 11 12 12 12 12 11 11 10 11 11 10 9 10 10 10 11 11 10 10 11 12 11 11 11 11
17 18 16 15 15 14 14 14 15 16 17 16 15 15 14 11 11 12 13 13 13 13 13 13 13 13 13 13 12 12 12 12 12 13 13 13 13 13 14 14 14 14 14 14
19 19 18 17 17 15 16 16 17 17 16 17 18 17 17 16 15 14 15 15 16 16 15 14 14 14 14 13 13 14 14 14 14 14 15 15 16 16 16 16 16 16 16 16
21 21 20 19 20 19 18 19 19 20 19 19 19 18 17 18 17 16 17 17 17 17 17 17 16 15 15 14 15 15 16 18 17 17 18 17 17 18 18 18 17 18 18 19
24 24 23 22 21 21 21 21 21 22 22 22 22 21 19 20 19 18 18 19 20 19 20 20 20 19 18 17 18 18 19 19 19 19 20 20 20 20 20 20 20 21 21 22
25 26 25 25 24 23 23 22 23 24 25 25 24 24 23 22 21 21 22 23 22 22 23 23 22 22 21 20 20 20 20 21 21 22 23 23 23 23 23 23 24 24 23 23
26 26 25 25 24 25 24 23 23 25 26 26 25 25 25 24 23 23 24 25 25 25 24 24 24 25 24 24 24 24 24 24 24 25 25 25 25 26 26 26 27 26 26 26
27 28 27 26 25 26 27 26 26 26 27 27 28 28 28 27 25 26 26 26 27 27 26 26 26 26 26 27 27 27 27 27 27 27 27 27 28 28 29 29 29 29 29 29
29 28 28 28 26 27 27 27 28 29 29 29 29 29 29 29 29 28 28 27 28 28 28 27 28 28 28 28 29 30 30 29 29 29 29 29 30 31 31 31 31 32 31 31
31 30 29 29 29 30 28 28 28 29 30 29 30 30 29 30 30 29 29 29 30 30 30 30 29 30 30 30 31 31 31 32 32 32 32 33 33 32 32 33 33 32 33 32
32 32 31 30 31 32 30 30 30 30 31 31 31 31 31 31 31 31 31 32 32 32 32 32 32 33 33 32 32 32 33 33 33 34 34 34 34 33 34 34 34 34 34 33
32 33 33 32 33 33 31 30 31 31 32 33 33 33 32 32 33 33 33 34 34 35 35 35 35 35 36 36 35 35 36 36 36 36 35 35 35 35 35 35 35 36 35 35
33 33 33 33 33 33 32 31 32 33 33 32 32 33 33 34 34 34 35 35 35 36 37 36 37 37 38 38 39 39 39 39 38 37 36 37 37 36 36 36 37 37 37 37
34 34 33 32 33 33 32 32 33 33 34 34 34 34 35 35 35 35 36 36 37 38 38 38 38 39 39 40 40 41 41 40 39 39 38 38 39 39 38 39 39 39 38 38
34 34 35 34 34 33 33 33 33 33 34 34 35 35 35 35 36 36 37 37 37 38 38 38 38 39 39 40 41 42 41 41 40 40 40 40 39 40 40 40 40 40 39 38
33 34 36 36 35 35 33 33 34 34 34 34 34 35 36 36 37 37 37 37 38 38 38 38 39 39 39 40 40 40 40 41 41 41 41 41 41 41 42 42 42 41 41 41
32 33 34 35 35 35 35 34 33 33 34 34 36 36 36 36 37 37 35 35 35 36 36 36 37 38 38 38 39 40 40 41 41 42 42 42 42 42 43 43 44 43 43 43
34 33 33 32 32 34 33 34 34 35 35 36 36 37 37 38 38 37 37 37 38 38 38 37 37 38 39 39 40 40 41 41 41 42 42 42 42 43 43 43 43 43 43 42
Wind_Direction
192 198 194 180 181 196 199 124 23 14 351 336 342 349 353 2 11 17 20 27 30 29 24 20 23 24 32 37 41 42 40 39 38 43 47 48 47 50 57 99 161 156 146 353
196 199 199 193 203 227 234 243 266 299 311 318 327 328 334 345 357 1 8 17 19 14 18 11 8 8 22 23 26 30 31 28 28 34 34 32 30 35 40 52 158 170 126 311
202 201 205 205 204 227 241 260 251 253 281 295 302 303 308 323 341 346 356 6 5 1 4 6 2 4 5 12 15 15 17 15 16 14 15 15 13 15 33 58 185 223 267 281
205 208 213 212 210 218 241 247 249 256 266 277 287 294 301 306 317 332 343 350 358 353 351 354 357 355 355 3 5 6 9 10 8 2 6 9 356 344 346 338 275 252 265 273
209 214 219 216 211 220 238 243 250 258 264 268 277 284 285 289 301 313 325 331 340 340 338 336 338 342 344 348 348 348 345 344 344 343 344 343 341 331 297 289 290 286 280 279
212 212 219 219 212 223 237 242 246 252 254 258 270 279 275 288 298 298 303 315 327 326 320 319 322 326 325 324 326 326 320 313 315 316 314 314 315 313 308 298 291 294 287 285
214 213 215 217 217 220 235 242 243 245 248 253 260 276 277 282 292 294 298 300 307 310 305 314 320 323 320 313 311 314 309 304 305 303 298 295 297 296 298 296 291 290 288 290
220 217 221 216 221 228 237 242 246 252 252 256 262 276 276 270 277 281 294 301 298 304 307 312 315 313 315 310 303 304 303 303 301 295 291 289 289 291 289 288 285 285 285 285
226 224 225 222 227 233 239 245 249 256 255 256 261 266 270 273 274 272 283 295 302 304 308 311 311 309 304 302 294 297 293 298 297 295 292 289 287 286 286 283 281 280 283 283
232 231 231 228 233 236 239 241 244 247 249 252 258 261 264 275 281 283 291 298 300 302 301 303 307 308 303 305 297 298 297 298 297 294 296 295 291 290 289 285 280 278 280 282
240 240 234 233 237 238 239 239 241 246 249 253 257 260 264 268 273 280 287 293 295 295 296 298 304 310 306 301 298 294 291 294 296 296 294 294 290 288 290 287 282 278 279 279
241 245 243 241 239 239 243 244 245 250 251 254 259 263 266 270 270 274 279 281 285 286 290 295 296 298 299 297 295 293 293 294 293 293 294 293 292 290 286 284 283 281 279 278
244 248 249 247 244 243 245 242 245 250 253 257 260 263 267 271 272 274 277 277 279 282 285 288 289 287 289 292 294 292 293 293 291 291 292 290 289 288 285 282 283 283 281 278
248 250 251 252 252 249 245 243 243 248 254 257 260 262 265 267 270 272 275 279 278 277 280 283 285 284 284 287 289 289 289 289 290 290 290 290 289 287 285 282 281 282 280 278
247 251 252 250 250 247 247 245 243 246 253 258 259 261 264 266 267 269 271 274 275 278 278 279 280 281 284 286 286 288 288 287 287 287 287 287 287 285 284 283 282 280 280 277
247 251 251 249 247 247 246 247 246 248 252 257 259 261 263 264 264 265 268 272 275 279 280 279 280 282 283 284 284 287 287 287 287 286 285 285 284 283 283 282 281 279 279 277
247 251 252 252 251 251 249 251 251 251 252 255 257 260 262 264 265 267 271 273 274 277 278 280 282 283 284 285 286 288 285 285 287 287 285 285 284 282 282 282 282 280 277 276
249 251 252 253 251 251 253 253 255 254 255 256 258 259 262 265 267 269 272 271 273 277 280 283 284 284 285 285 286 285 285 285 286 286 286 285 285 284 282 281 280 278 275 274
252 252 253 254 254 255 254 254 256 257 257 258 259 261 264 267 269 271 274 275 274 276 280 282 283 285 285 285 284 284 285 285 285 285 285 285 285 284 283 281 280 278 277 275
252 254 256 256 257 257 256 255 256 259 260 261 262 263 264 265 268 270 273 275 276 278 279 281 282 283 284 284 285 285 285 285 285 285 285 285 284 284 282 281 279 277 276 276
250 253 254 256 258 259 258 257 257 259 262 264 264 265 266 266 267 270 272 274 275 278 279 280 281 281 282 283 284 285 285 285 285 285 284 283 283 282 282 281 280 280 278 278
250 253 253 256 258 259 261 261 260 261 263 264 264 266 267 267 269 271 272 274 276 278 279 280 280 281 281 282 284 285 285 285 285 285 284 283 282 281 280 279 280 279 277 276
249 253 256 257 258 260 261 260 261 262 264 266 267 268 269 269 271 272 272 274 275 276 277 278 280 281 283 284 284 285 285 286 285 285 284 283 281 280 279 279 279 277 277 277
251 254 257 259 260 262 263 263 262 263 264 266 269 270 271 273 274 273 274 275 275 276 277 278 279 282 283 283 284 285 286 287 286 285 284 283 282 281 280 280 280 279 278 278
251 252 255 257 260 262 263 263 263 263 265 267 269 271 272 275 275 277 277 276 276 277 278 280 282 284 284 283 285 285 286 287 287 286 285 285 283 282 282 281 280 279 278 279
251 253 255 257 259 261 263 264 264 265 266 268 268 269 272 274 275 278 279 278 278 280 282 283 283 284 284 285 285 285 285 286 286 287 286 285 283 283 282 282 280 279 279 279
Height
5926 5928 5928 5929 5930 5930 5930 5930 5931 5932 5931 5930 5929 5929 5929 5928 5928 5928 5927 5926 5926 5925 5925 5923 5922 5921 5920 5920 5919 5918 5918 5917 5916 5916 5916 5915 5915 5915 5914 5913 5914 5914 5915 5915
5925 5926 5927 5928 5928 5928 5929 5930 5930 5931 5930 5929 5928 5928 5928 5927 5927 5927 5927 5927 5926 5925 5924 5923 5922 5921 5921 5920 5919 5918 5918 5917 5917 5916 5916 5915 5915 5914 5914 5913 5913 5914 5914 5914
5922 5925 5925 5926 5927 5927 5927 5929 5929 5929 5928 5928 5928 5928 5927 5927 5926 5926 5926 5926 5926 5925 5924 5923 5922 5921 5921 5920 5919 5918 5917 5917 5916 5916 5916 5915 5915 5914 5914 5913 5913 5913 5913 5913
5920 5922 5922 5923 5924 5925 5925 5927 5927 5927 5927 5927 5928 5926 5926 5925 5925 5925 5925 5925 5925 5925 5924 5923 5922 5921 5920 5919 5919 5918 5917 5917 5916 5916 5915 5914 5914 5914 5913 5913 5913 5912 5912 5912
5918 5919 5920 5921 5923 5923 5924 5925 5926 5926 5926 5926 5926 5925 5925 5923 5923 5923 5924 5924 5924 5924 5923 5922 5922 5921 5920 5919 5918 5917 5917 5916 5916 5915 5914 5914 5913 5913 5912 5912 5911 5911 5910 5909
5915 5916 5918 5919 5920 5921 5922 5923 5923 5924 5924 5924 5924 5923 5923 5921 5921 5921 5922 5922 5922 5922 5922 5921 5920 5920 5919 5918 5917 5917 5916 5915 5915 5914 5913 5913 5912 5911 5911 5910 5909 5909 5908 5907
5912 5914 5915 5916 5917 5919 5919 5920 5920 5921 5921 5922 5922 5920 5920 5919 5919 5919 5919 5919 5920 5920 5920 5919 5918 5918 5917 5916 5916 5915 5914 5914 5913 5912 5912 5911 5910 5909 5909 5908 5907 5907 5905 5905
5909 5911 5912 5913 5914 5915 5916 5917 5918 5918 5918 5919 5918 5917 5917 5916 5916 5916 5917 5917 5918 5917 5917 5917 5916 5916 5915 5914 5913 5913 5912 5911 5911 5910 5909 5908 5908 5907 5906 5905 5904 5904 5903 5902
5905 5908 5909 5910 5911 5912 5913 5913 5914 5915 5915 5915 5915 5914 5913 5913 5914 5914 5914 5914 5914 5914 5913 5913 5912 5912 5912 5912 5911 5910 5909 5909 5908 5907 5906 5905 5904 5904 5903 5902 5901 5900 5900 5899
5902 5903 5905 5906 5908 5908 5909 5910 5911 5911 5911 5911 5911 5911 5911 5911 5911 5911 5911 5911 5911 5910 5910 5909 5909 5908 5908 5907 5907 5906 5906 5906 5905 5903 5902 5902 5901 5900 5899 5898 5897 5896 5895 5895
5897 5899 5901 5902 5903 5904 5905 5905 5905 5906 5907 5907 5907 5909 5907 5907 5907 5907 5907 5907 5907 5906 5906 5905 5905 5905 5904 5904 5903 5903 5902 5902 5901 5899 5898 5897 5896 5895 5894 5893 5892 5891 5890 5890
5892 5894 5895 5898 5899 5900 5900 5900 5901 5902 5903 5903 5902 5906 5903 5903 5903 5903 5904 5903 5903 5902 5901 5901 5901 5901 5900 5900 5899 5898 5898 5897 5896 5895 5893 5892 5891 5890 5889 5888 5887 5886 5885 5884
5887 5889 5890 5892 5895 5895 5895 5895 5896 5897 5898 5898 5898 5901 5899 5898 5899 5899 5899 5898 5898 5898 5897 5896 5896 5896 5896 5895 5894 5893 5892 5891 5890 5889 5888 5887 5886 5885 5884 5883 5881 5880 5879 5878
5882 5883 5885 5887 5888 5889 5889 5890 5891 5891 5892 5892 5893 5893 5894 5894 5894 5894 5894 5894 5893 5893 5892 5891 5891 5890 5890 5889 5889 5888 5887 5886 5885 5884 5882 5881 5880 5879 5877 5876 5875 5873 5872 5870
5876 5877 5878 5880 5882 5882 5882 5883 5884 5885 5886 5886 5887 5888 5888 5888 5889 5889 5889 5888 5888 5886 5886 5886 5885 5884 5884 5883 5882 5881 5880 5879 5878 5877 5876 5875 5873 5872 5870 5869 5867 5866 5864 5863
5869 5870 5872 5874 5876 5876 5876 5878 5878 5879 5879 5880 5880 5881 5881 5882 5882 5883 5882 5882 5882 5881 5880 5880 5879 5878 5877 5876 5875 5874 5873 5872 5871 5870 5868 5867 5865 5864 5862 5860 5859 5857 5856 5855
5861 5863 5865 5866 5868 5869 5870 5871 5871 5871 5872 5873 5873 5874 5874 5875 5875 5876 5876 5875 5875 5874 5874 5873 5872 5871 5870 5869 5868 5866 5865 5864 5863 5862 5860 5858 5856 5854 5853 5851 5849 5848 5847 5846
5855 5855 5857 5858 5861 5861 5865 5864 5863 5864 5864 5865 5865 5866 5867 5868 5868 5868 5868 5868 5867 5867 5866 5865 5864 5863 5862 5861 5859 5858 5857 5855 5854 5852 5851 5849 5847 5845 5843 5841 5840 5838 5837 5836
5847 5848 5849 5850 5851 5852 5855 5855 5855 5856 5856 5857 5857 5858 5859 5860 5860 5860 5860 5860 5859 5858 5857 5856 5855 5854 5853 5851 5850 5848 5847 5845 5844 5842 5841 5839 5837 5835 5833 5832 5830 5829 5828 5827
5838 5839 5841 5842 5842 5844 5847 5847 5847 5849 5848 5849 5849 5850 5851 5852 5852 5853 5852 5851 5850 5849 5848 5847 5846 5844 5842 5841 5839 5838 5836 5835 5834 5832 5830 5828 5827 5825 5823 5822 5820 5819 5817 5816
5831 5831 5832 5833 5833 5835 5837 5839 5840 5841 5841 5841 5841 5842 5842 5843 5844 5844 5843 5842 5841 5840 5838 5837 5836 5834 5832 5831 5829 5827 5826 5824 5822 5821 5819 5817 5816 5814 5813 5811 5810 5808 5807 5805
5821 5823 5824 5824 5825 5828 5828 5829 5831 5831 5832 5832 5833 5833 5834 5834 5834 5833 5832 5831 5830 5829 5829 5827 5826 5824 5822 5820 5818 5816 5814 5813 5811 5809 5808 5806 5804 5803 5801 5800 5798 5796 5795 5794
5812 5814 5815 5816 5818 5818 5819 5820 5821 5821 5822 5823 5824 5824 5824 5824 5824 5823 5822 5822 5821 5820 5819 5817 5815 5813 5811 5809 5807 5805 5803 5801 5799 5797 5796 5794 5792 5791 5789 5788 5787 5785 5783 5782
5804 5804 5806 5807 5807 5808 5810 5811 5811 5812 5813 5813 5814 5814 5814 5814 5813 5812 5812 5811 5810 5809 5807 5806 5804 5802 5800 5798 5796 5793 5791 5789 5787 5785 5783 5782 5780 5778 5776 5775 5774 5772 5771 5770
5795 5796 5797 5797 5799 5799 5800 5801 5802 5802 5803 5803 5803 5804 5804 5803 5803 5802 5801 5800 5799 5797 5795 5794 5792 5790 5788 5787 5785 5783 5780 5778 5775 5773 5771 5769 5767 5765 5764 5762 5760 5759 5758 5756
5786 5787 5789 5790 5791 5791 5792 5792 5793 5793 5793 5793 5793 5793 5793 5793 5792 5791 5790 5789 5788 5786 5784 5783 5781 5779 5777 5775 5773 5771 5769 5766 5764 5761 5759 5757 5754 5752 5751 5749 5747 5745 5744 5743